Location: Unspecified
(0.0000°N, 0.0000°E)
Time: 16:16:06
(UTC+00:00)

Vanguard 1 - Pass Details

Date: 16 December 2025
Orbit: 651 x 3820 km, 34.2° (Epoch: 14 January)

Event Time Altitude Azimuth Distance (km) Brightness Sun altitude
Rises 03:30:28 0° 223° (SW) 5,330 13.7 -32.9°
Reaches altitude 10° 03:35:02 10° 215° (SW) 3,788 13.0 -31.9°
Maximum altitude 03:42:55 35° 153° (SSE) 1,624 11.5 -30.2°
Drops below altitude 10° 03:47:55 10° 86° (E) 2,380 12.7 -29.0°
Sets 03:50:07 0° 76° (ENE) 3,142 13.4 -28.6°
